Flag for USA

Past Weather in Haines, Alaska, USA — Yesterday and Last 2 Weeks

Now
57 °F

Overcast.


Feels Like: 55 °F
Forecast: 60 / 55 °F
Wind: 10 mph from East

Location: Haines Airport

Current Time: Jul 12, 2020 at 6:16:00 am

Latest Report: Jul 12, 2020 at 4:54 am


Visibility: 10 mi

Pressure: 29.93 "Hg

Humidity: 81%

Dew Point: 51 °F

Location of HainesLocation

Past Weather in Haines — Graph

°F

Haines Temperature Yesterday

Maximum temperature yesterday: 64 °F (at 4:54 pm)
Minimum temperature yesterday: 54 °F (at 2:54 am)
Average temperature yesterday: 58 °F

High & Low Weather Summary for the Past Weeks

 TemperatureHumidityPressure
High80 °F (Jul 2, 1:54 pm)93% (Jul 8, 3:30 am)30.19 "Hg (Jul 8, 3:30 am)
Low50 °F (Jun 28, 3:54 am)18% (Jul 2, 1:54 pm)29.78 "Hg (Jul 9, 7:06 pm)
Average60 °F70%29.97 "Hg
* Reported Jun 27 1:54 pm — Jul 12 4:54 am, Haines. Weather by CustomWeather, © 2020

Note: Actual official high and low records may vary slightly from our data, if they occured in-between our weather recording intervals... More about our weather records

Haines Weather History for the Previous 24 Hours

Scroll right to see more
 ConditionsComfort  
Time TempWeatherWind HumidityBarometerVisibility
4:54 am
Sun, Jul 12
57 °FOvercast.10 mph81%29.93 "Hg10 mi
3:54 am57 °FOvercast.9 mph81%29.92 "Hg10 mi
2:54 am57 °FMostly cloudy.7 mph81%29.91 "Hg10 mi
1:54 am57 °FOvercast.9 mph81%29.90 "Hg10 mi
12:54 am58 °FMostly cloudy.10 mph78%29.90 "Hg10 mi
12:10 am58 °FMostly cloudy.12 mph78%29.88 "Hg10 mi
11:54 pm
Sat, Jul 11
58 °FMostly cloudy.9 mph78%29.89 "Hg10 mi
10:54 pm58 °FOvercast.9 mph81%29.87 "Hg10 mi
9:54 pm58 °FOvercast.8 mph81%29.87 "Hg10 mi
9:14 pm59 °FOvercast.8 mph75%29.86 "Hg10 mi
8:54 pm59 °FPartly sunny.8 mph75%29.86 "Hg10 mi
8:06 pm60 °FBroken clouds.9 mph75%29.85 "Hg10 mi
7:54 pm60 °FScattered clouds.10 mph75%29.85 "Hg10 mi
6:54 pm62 °FOvercast.12 mph73%29.85 "Hg10 mi
6:13 pm61 °FCloudy.9 mph72%29.84 "Hg10 mi
5:54 pm60 °FBroken clouds.10 mph75%29.84 "Hg10 mi
4:54 pm64 °FScattered clouds.12 mph68%29.84 "Hg10 mi
3:54 pm62 °FPartly sunny.9 mph67%29.84 "Hg10 mi
2:54 pm62 °FOvercast.8 mph70%29.83 "Hg10 mi
1:54 pm62 °FOvercast.9 mph67%29.84 "Hg10 mi
12:54 pm62 °FOvercast.8 mph67%29.84 "Hg10 mi
11:54 am61 °FOvercast.7 mph70%29.84 "Hg10 mi
10:54 am58 °FMore clouds than sun.6 mph78%29.84 "Hg10 mi
9:54 am58 °FOvercast.5 mph78%29.84 "Hg10 mi
8:54 am56 °FOvercast.6 mph81%29.84 "Hg10 mi
8:37 am56 °FMore clouds than sun.5 mph81%29.83 "Hg10 mi
8:01 am55 °FMostly cloudy.3 mph83%29.83 "Hg10 mi
6:54 am56 °FOvercast.5 mph81%29.83 "Hg10 mi
Weather by CustomWeather, © 2020

See weather overview